星链-3815 (STARLINK-3815 )

导读 | 豆包AI

STARLINK-3815是美国太空探索技术公司(SpaceX)星链(Starlink)卫星互联网星座中的低轨卫星,于北京时间2022年4月29日8时发射升空。作为星链计划的组网卫星,它运行于近地轨道,旨在为全球用户提供高速低延迟宽带互联网服务,可覆盖偏远区域,也为应急通信、行业应用提供通信支撑,目前在轨正常工作。

基本信息
目录编号:
52338
目录名称:
STARLINK-3815
国际标识:
2022-045H
轨道中心:
EARTH
卫星名称:
星链-3815
卫星全名:
星链-3815 (STARLINK-3815 )
卫星状态:
已陨落 最后检测时间 2025-03-19
发射日期:
2022-04-29 UTC
国别 :
美国 (US)
星等 :
--
轨道信息
数据来源 国际轨道数据
星历时间: 2025-03-19T12:35:39+0800
轨道信息已过期360天
半长轴: 6572.155km
偏心率: 0.0010852
轨道倾角: 53.187°
近地点辐角 250.729°
升交点赤经 288.970°
平近点角 215.347°
近地点: 186.887km
远地点: 201.153km
周期: 88.373分钟
每日圈数: 16.294502
详细信息
固有亮度:
5
最大亮度:
2.5
卫星平台:
Starlink v1.5
覆盖范围:
全球
运营商:
太空探索技术公司
运营商所在国:
美国
制造商(研发单位):
太空探索技术公司
制造商所在国:
美国
使用方式:
暂无
卫星简介
星链(Starlink)计划是由太空探索技术公司(SpaceX)提出的一个巨型低轨卫星互联网星座项目,计划在2019年至2024年间在太空搭建由约1.2万颗卫星组成的“星链”网络,其中1584颗将部署在地球上空550千米处的近地轨道,并从2020年开始工作。该卫星仍在工作。